Orbital elements of COSMOS 2251 DEB
| Launched | 15 June 1993 |
| Flight ended | – |
| Launch site | Plesetsk Missile and Space Complex, Russia |
| Owner | Commonwealth of Independent States (former USSR) |
| NORAD ID | 33838 |
| Date fetched |
Epoch osculation |
Inc. [°] |
Ecc. | RA asc node [hr] |
Arg Peri. [°] |
Mean anom [°] |
Mean motion [rev/day] |
Abs. mag |
| Date fetched |
Epoch osculation |
Inc. [°] |
Ecc. | RA asc node [hr] |
Arg Peri. [°] |
Mean anom [°] |
Mean motion [rev/day] |
Abs. mag |
| 2026 May 03 17:57 | 2026 Apr 30 11:42:45 | 74.0367 | 0.00269 | 16.6579 | 336.0558 | 103.1896 | 14.48803 | – |
| 2026 May 02 17:57 | 2026 Apr 30 11:42:45 | 74.0367 | 0.00269 | 16.6579 | 336.0558 | 103.1896 | 14.48803 | – |
| 2026 May 01 17:56 | 2026 Apr 30 11:42:45 | 74.0367 | 0.00269 | 16.6579 | 336.0558 | 103.1896 | 14.48803 | – |
| 2026 Apr 30 17:56 | 2026 Apr 30 11:42:45 | 74.0367 | 0.00269 | 16.6579 | 336.0558 | 103.1896 | 14.48803 | – |
| 2026 Apr 29 17:57 | 2026 Apr 24 13:09:32 | 74.0362 | 0.00266 | 17.4000 | 348.7420 | 103.1896 | 14.48803 | – |
| 2026 Apr 28 17:56 | 2026 Apr 24 13:09:32 | 74.0362 | 0.00266 | 17.4000 | 348.7420 | 103.1896 | 14.48803 | – |
| 2026 Apr 27 17:58 | 2026 Apr 24 13:09:32 | 74.0362 | 0.00266 | 17.4000 | 348.7420 | 103.1896 | 14.48803 | – |
| 2026 Apr 26 17:58 | 2026 Apr 24 13:09:32 | 74.0362 | 0.00266 | 17.4000 | 348.7420 | 103.1896 | 14.48803 | – |
| 2026 Apr 25 17:58 | 2026 Apr 24 13:09:32 | 74.0362 | 0.00266 | 17.4000 | 348.7420 | 103.1896 | 14.48803 | – |
| 2026 Apr 24 17:59 | 2026 Apr 24 13:09:32 | 74.0362 | 0.00266 | 17.4000 | 348.7420 | 103.1896 | 14.48803 | – |
| 2026 Apr 23 17:57 | 2026 Apr 19 12:06:22 | 74.0355 | 0.00265 | 18.0302 | 359.5682 | 103.1896 | 14.48803 | – |
| 2026 Apr 22 17:57 | 2026 Apr 19 12:06:22 | 74.0355 | 0.00265 | 18.0302 | 359.5682 | 103.1896 | 14.48803 | – |
| 2026 Apr 21 17:57 | 2026 Apr 19 12:06:22 | 74.0355 | 0.00265 | 18.0302 | 359.5682 | 103.1896 | 14.48803 | – |
| 2026 Apr 20 17:57 | 2026 Apr 19 12:06:22 | 74.0355 | 0.00265 | 18.0302 | 359.5682 | 103.1896 | 14.48803 | – |
| 2026 Apr 19 17:58 | 2026 Apr 19 12:06:22 | 74.0355 | 0.00265 | 18.0302 | 359.5682 | 103.1896 | 14.48803 | – |
| 2026 Apr 18 17:56 | 2026 Apr 13 05:50:22 | 74.0355 | 0.00263 | 18.8125 | 13.0357 | 103.1896 | 14.48803 | – |
| 2026 Apr 16 17:57 | 2026 Apr 13 05:50:22 | 74.0355 | 0.00263 | 18.8125 | 13.0357 | 103.1896 | 14.48803 | – |
| 2026 Apr 14 17:57 | 2026 Apr 13 05:50:22 | 74.0355 | 0.00263 | 18.8125 | 13.0357 | 103.1896 | 14.48803 | – |
| 2026 Apr 13 17:57 | 2026 Apr 13 05:50:22 | 74.0355 | 0.00263 | 18.8125 | 13.0357 | 103.1896 | 14.48803 | – |
| 2026 Apr 12 17:57 | 2026 Apr 08 14:15:49 | 74.0357 | 0.00261 | 19.3934 | 23.0400 | 103.1896 | 14.48803 | – |
| 2026 Apr 11 17:57 | 2026 Apr 08 14:15:49 | 74.0357 | 0.00261 | 19.3934 | 23.0400 | 103.1896 | 14.48803 | – |
| 2026 Apr 10 17:58 | 2026 Apr 08 14:15:49 | 74.0357 | 0.00261 | 19.3934 | 23.0400 | 103.1896 | 14.48803 | – |
| 2026 Apr 09 18:01 | 2026 Apr 08 14:15:49 | 74.0357 | 0.00261 | 19.3934 | 23.0400 | 103.1896 | 14.48803 | – |
| 2026 Apr 08 17:57 | 2026 Apr 08 14:15:49 | 74.0357 | 0.00261 | 19.3934 | 23.0400 | 103.1896 | 14.48803 | – |
| 2026 Apr 07 17:57 | 2026 Apr 02 01:18:24 | 74.0363 | 0.00259 | 20.2105 | 37.1799 | 103.1896 | 14.48803 | – |
| 2026 Apr 06 17:57 | 2026 Apr 02 01:18:24 | 74.0363 | 0.00259 | 20.2105 | 37.1799 | 103.1896 | 14.48803 | – |